DW5479 Weather Reports


time (UTC)temp
F
wind
direction
speed
knots
gust
knots
rain 1hr
in
rain 24hr
in
rain mn
in
humidity
%
barometer
mb
20260906203043 98 142 0.9 3.5 0.00 0.00 0.00 37 1009.3
20260906201556 98 167 4.3 9.6 0.00 0.00 0.00 38 1009.6
20260906200011 95 179 1.7 7.0 0.00 0.00 0.00 37 1009.8
20260906194524 96 146 5.2 8.7 0.00 0.00 0.00 38 1010.0
20260906193028 97 149 5.2 9.6 0.00 0.00 0.00 37 1010.4
20260906191607 96 141 1.7 7.0 0.00 0.00 0.00 38 1010.6
20260906190021 96 160 1.7 4.3 0.00 0.00 0.00 39 1010.7
20260906184539 97 147 3.5 7.8 0.00 0.00 0.00 40 1010.8
20260906183055 96 156 0.9 7.0 0.00 0.00 0.00 40 1010.9
20260906181511 95 170 3.5 6.1 0.00 0.00 0.00 42 1011.1
20260906180034 94 169 2.6 7.0 0.00 0.00 0.00 46 1011.4
20260906174556 93 148 2.6 6.1 0.00 0.00 0.00 45 1011.8
20260906173102 93 145 1.7 5.2 0.00 0.00 0.00 49 1012.1
20260906171514 93 153 4.3 7.0 0.00 0.00 0.00 49 1012.4
20260906170034 93 132 0.9 6.1 0.00 0.00 0.00 50 1012.5
20260906164549 91 127 3.5 7.0 0.00 0.00 0.00 54 1012.5
20260906163017 92 169 2.6 7.0 0.00 0.00 0.00 54 1012.6
20260906161532 90 147 2.6 6.1 0.00 0.00 0.00 56 1012.6
20260906160050 90 136 1.7 5.2 0.00 0.00 0.00 57 1012.5
20260906154509 89 141 0.9 6.1 0.00 0.00 0.00 58 1012.4
20260906153030 87 145 2.6 6.1 0.00 0.00 0.00 62 1012.4
20260906151554 87 157 0.9 5.2 0.00 0.00 0.00 62 1012.4
20260906150100 86 153 1.7 5.2 0.00 0.00 0.00 64 1012.4
20260906144514 86 165 2.6 6.1 0.00 0.00 0.00 66 1012.4
20260906143041 85 163 1.7 6.1 0.00 0.00 0.00 68 1012.3
20260906141601 85 141 1.7 4.3 0.00 0.00 0.00 71 1012.2
20260906140025 83 156 0.0 2.6 0.00 0.00 0.00 79 1012.1
20260906134551 82 136 1.7 4.3 0.00 0.00 0.00 81 1012.0
20260906133056 80 155 0.9 2.6 0.00 0.00 0.00 85 1011.7
20260906131518 78 148 0.0 1.7 0.00 0.00 0.00 87 1011.6
20260906130025 77 147 0.0 0.9 0.00 0.00 0.00 88 1011.5
20260906124547 76 162 0.0 0.0 0.00 0.00 0.00 88 1011.3
20260906123102 76 167 0.0 0.9 0.00 0.00 0.00 88 1011.0
20260906121515 76 150 0.0 0.9 0.00 0.00 0.00 87 1010.8
20260906120031 77 147 0.0 1.7 0.00 0.00 0.00 87 1010.7
20260906114607 77 155 0.0 2.6 0.00 0.00 0.00 87 1010.5
20260906113032 77 150 0.9 3.5 0.00 0.00 0.00 87 1010.4
20260906111550 77 148 0.9 3.5 0.00 0.00 0.00 87 1010.1
20260906110002 77 158 1.7 4.3 0.00 0.00 0.00 87 1010.3
20260906104518 76 150 0.9 2.6 0.00 0.00 0.00 88 1010.1
20260906103042 76 158 0.0 0.9 0.00 0.00 0.00 87 1010.1
20260906101554 76 136 0.0 1.7 0.00 0.00 0.00 87 1010.2
20260906100006 76 192 0.0 0.0 0.00 0.00 0.00 87 1009.8
20260906094530 76 170 0.0 0.0 0.00 0.00 0.00 87 1009.6
20260906093102 76 172 0.0 0.0 0.00 0.00 0.00 87 1009.6
20260906091527 75 168 0.0 0.0 0.00 0.00 0.00 86 1009.5
20260906090116 75 146 0.0 0.0 0.00 0.00 0.00 86 1009.4
20260906084511 76 169 0.0 0.0 0.00 0.00 0.00 85 1009.6
20260906083033 76 179 0.0 0.0 0.00 0.00 0.00 85 1009.6
20260906081547 77 163 0.0 0.0 0.00 0.00 0.00 84 1009.7
20260906080125 78 195 0.0 0.0 0.00 0.00 0.00 84 1010.0
20260906074518 78 152 0.0 0.9 0.00 0.00 0.00 83 1010.3
20260906073030 79 210 0.0 0.0 0.00 0.00 0.00 83 1010.3
20260906071548 79 136 0.0 3.5 0.00 0.00 0.00 82 1010.4
20260906070001 80 161 0.0 3.5 0.00 0.00 0.00 82 1010.7
20260906064533 80 164 0.9 5.2 0.00 0.00 0.00 81 1010.8
20260906063102 80 161 1.7 4.3 0.00 0.00 0.00 81 1011.0
20260906061520 80 158 0.0 3.5 0.00 0.00 0.00 79 1011.1
20260906060002 81 151 0.9 5.2 0.00 0.00 0.00 78 1011.2
20260906054521 81 145 2.6 4.3 0.00 0.00 0.00 77 1011.2
20260906053036 81 123 2.6 7.0 0.00 0.00 0.00 76 1011.2
20260906051602 82 142 1.7 6.1 0.00 0.00 0.00 75 1011.1
20260906050007 82 159 4.3 7.8 0.00 0.00 0.00 74 1011.3
20260906044526 82 150 1.7 7.0 0.00 0.00 0.00 72 1011.3
20260906043101 83 166 3.5 7.8 0.00 0.00 0.00 71 1011.2
20260906041524 83 140 2.6 7.0 0.00 0.00 0.00 69 1011.2
20260906040057 84 142 3.5 7.0 0.00 0.00 0.00 68 1011.1
20260906034539 84 161 2.6 8.7 0.00 0.00 0.00 66 1011.0
20260906033049 84 171 4.3 11.3 0.00 0.00 0.00 64 1010.6
20260906031516 85 152 3.5 10.4 0.00 0.00 0.00 63 1010.5
20260906030033 85 103 6.1 13.9 0.00 0.00 0.00 63 1010.2
20260906024526 86 160 4.3 11.3 0.00 0.00 0.00 61 1009.9
20260906023045 86 146 5.2 11.3 0.00 0.00 0.00 60 1009.5
20260906021515 87 149 7.0 14.8 0.00 0.00 0.00 59 1009.1
20260906020040 88 138 6.1 13.9 0.00 0.00 0.00 56 1008.8
20260906014507 89 162 7.0 13.0 0.00 0.00 0.00 54 1008.6
20260906013051 90 144 5.2 16.5 0.00 0.00 0.00 53 1008.4
20260906011553 91 154 3.5 7.8 0.00 0.00 0.00 47 1008.1
20260906010018 92 140 3.5 7.0 0.00 0.00 0.00 46 1007.9
20260906004531 92 154 3.5 10.4 0.00 0.00 0.00 45 1007.9
20260906003049 93 142 4.3 10.4 0.00 0.00 0.00 44 1007.8
20260906001503 95 131 4.3 8.7 0.00 0.00 0.00 33 1007.8
20260906000022 96 136 3.5 6.1 0.00 0.00 0.00 34 1007.8
20260905234539 96 138 3.5 7.0 0.00 0.00 0.00 36 1007.6
20260905233059 97 156 3.5 8.7 0.00 0.00 0.00 37 1007.7
20260905231530 98 139 4.3 8.7 0.00 0.00 0.00 36 1007.6
20260905230046 98 161 1.7 7.0 0.00 0.00 0.00 35 1007.6
20260905224621 98 127 1.7 7.0 0.00 0.00 0.00 35 1007.7
20260905223019 98 141 1.7 5.2 0.00 0.00 0.00 35 1007.7
20260905221535 98 143 1.7 7.0 0.00 0.00 0.00 36 1007.8
20260905214509 98 142 3.5 7.0 0.00 0.00 0.00 35 1007.8
20260905213022 97 134 3.5 7.8 0.00 0.00 0.00 35 1008.1
20260905211538 95 144 1.7 6.1 0.00 0.00 0.00 39 1008.2
20260905210106 95 142 0.9 6.1 0.00 0.00 0.00 42 1008.3
20260905204555 96 150 0.9 7.8 0.00 0.00 0.00 41 1008.5